30.06.2024;16:00;3
30.06.2024;15:00;2
30.06.2024;14:00;2
30.06.2024;13:00;3
30.06.2024;12:00;2
30.06.2024;11:00;3
30.06.2024;10:00;2
30.06.2024;09:00;2
30.06.2024;08:00;2
30.06.2024;07:00;2
30.06.2024;06:00;2
30.06.2024;05:00;2
30.06.2024;04:00;2
30.06.2024;03:00;10
30.06.2024;02:00;16
30.06.2024;01:00;18
30.06.2024;00:00;18
29.06.2024;23:00;15
29.06.2024;22:00;16
29.06.2024;21:00;21
29.06.2024;20:00;18
29.06.2024;19:00;14
29.06.2024;18:00;9
29.06.2024;17:00;6
29.06.2024;16:00;4
29.06.2024;15:00;5
29.06.2024;14:00;4
29.06.2024;13:00;4
29.06.2024;12:00;7
29.06.2024;11:00;9
29.06.2024;10:00;4
29.06.2024;09:00;8
29.06.2024;08:00;10
29.06.2024;07:00;18
29.06.2024;06:00;12
29.06.2024;05:00;7
29.06.2024;04:00;7
29.06.2024;03:00;10
29.06.2024;02:00;12
29.06.2024;01:00;14
29.06.2024;00:00;15
28.06.2024;23:00;15
28.06.2024;22:00;11
28.06.2024;21:00;6
28.06.2024;20:00;5
28.06.2024;19:00;5
28.06.2024;18:00;5
28.06.2024;17:00;3
